sat.trackr.live / text

‹ back to catalog

STARLINK-35853

NORAD 67177 · 2025-303Q

PAYLOAD ACTIVE UNKNOWN

§ Identity

Operator
Country
US
Launch date
2025-12-17
Launch site
AFETR
Launch vehicle
Mass (kg)
RCS (m²)

Purposes: comms

External: N2YO · Heavens-Above · Gunter

§ Orbital elements

Epoch: 2026-09-20T03:27:43.683840Z

Period
94.27 min
Inclination
43.0024°
Eccentricity
0.0001362
Mean motion
15.27583823 rev/d
Perigee alt
482.1 km
Apogee alt
484.0 km
Semi-major
6,861.2 km
B*
3.1818e-4
RAAN
292.6075°
Arg perigee
264.3385°
Mean anomaly
95.7312°
Rev number
4,247

§ Raw data

STARLINK-358531 67177U 25303Q   26263.14425560  .00008504  00000+0  31818-3 0  99972 67177  43.0024 292.6075 0001362 264.3385  95.7312 15.27583823 42475

JSON: /api/v1/satellites/67177 · /tle

For live sub-satellite position, see the globe view (requires WebGL).

§ Visibility from observer

Set your observer location to see the next 7 days of passes ≥ 10°. The values pass through the URL so the page stays shareable.

No JS? Fill the form by hand. The geolocation button needs JavaScript.